Weather in Apsheronsk

Russia / Krasnodar Krai     44°28′05″N   39°44′12″E
temp.,
°C
wind,
m/s
gust,
m/s
humid.,
%
clouds,
%
prec.,
mm/h
press.,
hPa
HPBL,
m
19 april, mon
mon1900:00+11wnw1198100 0.6 101510
03:00+11ne1198100 0.9 101514
06:00+11ese1299100 3.6 101559
09:00+15wsw0290100 4.7 1014265
12:00+17wsw41084100 0.9 1013742
15:00+16w3987100 1.3 1013377
18:00+15ne2294100 0.3 1013221
21:00+13ene2397100 0.3 1013100
20 april, tue
tue2000:00+12ne1299100 0.0 100959
03:00+11e01100100 0.6 100822
06:00+11nw0099100 0.0 100412
09:00+15wnw3587100 0.0 1005576
12:00+21wsw7115813 0.0 10051186
15:00+18wsw8135362 0.1 10081104
18:00+13sw61458100 0.0 1010961
21:00+12ssw51360100 0.0 1012789
21 april, wed
wed2100:00+10wsw248397 0.1 1014173
03:00+9nw0189100 0.2 101538
06:00+9ene1293100 0.0 101681
09:00+12e1177100 0.0 1018705
12:00+16wnw2454100 0.1 10171644
15:00+16w56467 0.3 10181578
18:00+13w366112 0.0 1019586
21:00+7s11835 0.0 102111
22 april, thu
thu2200:00+6sse1187100 0.0 102211
03:00+6sse1189100 0.0 102210
06:00+6sse118674 0.0 102218
09:00+13n005996 0.0 1023531
12:00+17nw234715 0.0 10221627
15:00+16nne336034 0.3 1021809
18:00+13nne12831 1.3 102272
21:00+8sse11934 1.3 102410
23 april, fri
fri2300:00+7ssw11961 0.0 102411
03:00+6s11970 0.0 102413
06:00+6sse11960 0.0 102421
09:00+14e01755 0.0 1023464
12:00+18nw234499 0.0 10221868
15:00+19nnw233832 0.0 10202019
18:00+15ne257050 0.1 1020203
21:00+9se118828 0.1 102110